QPF
0.02 0.02 0.02 0.02 0.02 0.02 0.02 0.01 0.01 0.01 0.01 0.01 0.01 0.01 0.01 0.01 0.01 0.00 0.00 0.01 0.02 0.01 0.01 0.01 0.02 0.04 0.04 0.07 0.12 0.12 0.10 0.09 0.13 0.17 0.14 0.10 0.08 0.08
0.01 0.01 0.01 0.01 0.02 0.02 0.02 0.02 0.02 0.01 0.01 0.01 0.02 0.03 0.03 0.03 0.02 0.01 0.01 0.01 0.01 0.01 0.01 0.02 0.02 0.04 0.03 0.04 0.08 0.14 0.13 0.09 0.10 0.13 0.13 0.09 0.07 0.05
0.01 0.01 0.01 0.01 0.01 0.01 0.02 0.02 0.02 0.02 0.02 0.03 0.05 0.06 0.05 0.04 0.03 0.02 0.01 0.01 0.01 0.01 0.01 0.03 0.03 0.04 0.04 0.04 0.07 0.11 0.12 0.12 0.10 0.09 0.09 0.07 0.05 0.05
0.01 0.01 0.00 0.01 0.01 0.01 0.01 0.01 0.02 0.02 0.02 0.04 0.06 0.06 0.05 0.05 0.04 0.03 0.01 0.01 0.00 0.01 0.01 0.04 0.06 0.05 0.05 0.05 0.07 0.10 0.10 0.11 0.11 0.09 0.07 0.07 0.06 0.05
0.01 0.01 0.01 0.00 0.00 0.01 0.01 0.01 0.02 0.02 0.03 0.06 0.08 0.07 0.06 0.05 0.05 0.04 0.02 0.02 0.01 0.01 0.01 0.02 0.04 0.04 0.04 0.05 0.07 0.08 0.07 0.09 0.10 0.08 0.07 0.07 0.06 0.04
0.00 0.00 0.01 0.01 0.01 0.00 0.01 0.01 0.02 0.03 0.05 0.07 0.08 0.06 0.05 0.04 0.03 0.03 0.02 0.02 0.02 0.01 0.01 0.01 0.02 0.04 0.04 0.05 0.07 0.06 0.06 0.07 0.07 0.06 0.05 0.06 0.05 0.03
0.00 0.00 0.00 0.01 0.01 0.01 0.01 0.01 0.02 0.02 0.05 0.07 0.06 0.06 0.05 0.04 0.03 0.02 0.02 0.02 0.02 0.02 0.02 0.02 0.03 0.04 0.04 0.06 0.07 0.07 0.05 0.06 0.06 0.05 0.04 0.04 0.04 0.02
0.01 0.00 0.01 0.01 0.01 0.01 0.02 0.02 0.02 0.02 0.03 0.04 0.05 0.06 0.06 0.05 0.03 0.02 0.02 0.02 0.02 0.02 0.02 0.03 0.04 0.05 0.04 0.07 0.07 0.08 0.07 0.06 0.05 0.04 0.03 0.03 0.02 0.02
0.00 0.00 0.00 0.01 0.01 0.01 0.01 0.01 0.02 0.02 0.03 0.04 0.04 0.05 0.05 0.05 0.03 0.02 0.01 0.01 0.02 0.01 0.01 0.02 0.04 0.06 0.05 0.07 0.08 0.07 0.08 0.08 0.06 0.05 0.04 0.04 0.03 0.02
0.01 0.00 0.00 0.00 0.01 0.01 0.01 0.01 0.02 0.02 0.03 0.04 0.04 0.04 0.05 0.04 0.03 0.02 0.02 0.01 0.01 0.01 0.01 0.02 0.03 0.05 0.06 0.05 0.06 0.07 0.07 0.08 0.08 0.07 0.04 0.05 0.05 0.04
0.01 0.01 0.00 0.01 0.01 0.01 0.01 0.01 0.02 0.02 0.03 0.04 0.04 0.04 0.04 0.04 0.03 0.02 0.02 0.02 0.02 0.01 0.01 0.02 0.03 0.04 0.05 0.05 0.04 0.05 0.08 0.09 0.07 0.08 0.08 0.05 0.04 0.05
0.03 0.02 0.02 0.01 0.02 0.02 0.01 0.01 0.01 0.02 0.02 0.02 0.02 0.03 0.03 0.04 0.04 0.03 0.02 0.02 0.02 0.02 0.01 0.02 0.02 0.03 0.06 0.06 0.04 0.04 0.05 0.10 0.11 0.08 0.08 0.07 0.05 0.03
0.01 0.02 0.02 0.03 0.03 0.03 0.03 0.02 0.02 0.03 0.03 0.02 0.02 0.03 0.03 0.03 0.04 0.04 0.03 0.03 0.02 0.02 0.02 0.02 0.02 0.02 0.03 0.03 0.02 0.03 0.05 0.07 0.11 0.15 0.14 0.10 0.08 0.05
0.01 0.01 0.01 0.02 0.02 0.02 0.02 0.02 0.03 0.03 0.02 0.02 0.02 0.02 0.04 0.04 0.03 0.03 0.03 0.03 0.02 0.02 0.02 0.02 0.02 0.02 0.02 0.01 0.02 0.02 0.03 0.06 0.07 0.11 0.14 0.18 0.14 0.10
0.02 0.02 0.02 0.02 0.02 0.02 0.01 0.02 0.02 0.02 0.02 0.02 0.02 0.02 0.02 0.03 0.03 0.03 0.03 0.03 0.03 0.03 0.03 0.02 0.02 0.02 0.02 0.02 0.01 0.02 0.03 0.04 0.05 0.08 0.10 0.10 0.12 0.12
0.02 0.02 0.02 0.02 0.02 0.02 0.02 0.01 0.01 0.01 0.01 0.02 0.02 0.03 0.03 0.03 0.04 0.04 0.04 0.04 0.04 0.05 0.06 0.04 0.03 0.03 0.03 0.03 0.02 0.02 0.03 0.04 0.04 0.04 0.08 0.10 0.08 0.08
0.02 0.03 0.03 0.02 0.02 0.02 0.02 0.02 0.01 0.01 0.01 0.01 0.02 0.02 0.03 0.04 0.04 0.04 0.04 0.04 0.03 0.03 0.05 0.05 0.05 0.07 0.05 0.03 0.02 0.02 0.02 0.03 0.03 0.03 0.05 0.09 0.09 0.06
0.02 0.02 0.02 0.02 0.02 0.02 0.02 0.02 0.02 0.02 0.02 0.02 0.02 0.02 0.03 0.04 0.04 0.04 0.05 0.05 0.04 0.04 0.04 0.04 0.04 0.06 0.07 0.05 0.04 0.03 0.03 0.04 0.05 0.04 0.03 0.05 0.08 0.07
0.02 0.02 0.02 0.02 0.02 0.02 0.02 0.02 0.02 0.02 0.02 0.02 0.02 0.03 0.03 0.04 0.04 0.03 0.04 0.04 0.04 0.03 0.02 0.02 0.03 0.05 0.07 0.07 0.05 0.04 0.04 0.05 0.06 0.07 0.05 0.04 0.05 0.05
0.01 0.01 0.02 0.02 0.02 0.02 0.01 0.01 0.02 0.02 0.02 0.03 0.03 0.03 0.04 0.04 0.04 0.03 0.03 0.03 0.03 0.03 0.02 0.03 0.03 0.04 0.05 0.05 0.04 0.03 0.03 0.03 0.05 0.08 0.08 0.05 0.04 0.05
0.02 0.02 0.02 0.02 0.03 0.02 0.02 0.02 0.02 0.02 0.02 0.02 0.02 0.03 0.03 0.03 0.04 0.03 0.03 0.03 0.03 0.03 0.02 0.02 0.02 0.03 0.04 0.03 0.03 0.02 0.02 0.03 0.03 0.06 0.08 0.08 0.07 0.05
0.02 0.02 0.02 0.02 0.02 0.03 0.03 0.03 0.03 0.03 0.03 0.03 0.02 0.02 0.02 0.02 0.02 0.02 0.02 0.02 0.02 0.01 0.01 0.01 0.01 0.02 0.03 0.04 0.03 0.03 0.03 0.03 0.03 0.05 0.07 0.08 0.08 0.07
0.02 0.02 0.02 0.02 0.03 0.04 0.04 0.04 0.03 0.04 0.04 0.04 0.04 0.03 0.03 0.02 0.02 0.02 0.02 0.02 0.01 0.01 0.01 0.01 0.01 0.01 0.02 0.02 0.03 0.03 0.02 0.02 0.02 0.03 0.05 0.07 0.06 0.06
MSLP
1018.70 1018.98 1019.27 1019.52 1019.73 1019.87 1019.92 1019.88 1019.77 1019.60 1019.39 1019.16 1018.95 1018.75 1018.59 1018.46 1018.35 1018.24 1018.12 1017.98 1017.80 1017.55 1017.22 1016.81 1016.32 1015.75 1015.13 1014.49 1013.86 1013.29 1012.83 1012.52 1012.39 1012.47 1012.74 1013.21 1013.83 1014.57
1018.15 1018.39 1018.63 1018.86 1019.04 1019.16 1019.21 1019.19 1019.11 1018.98 1018.82 1018.64 1018.47 1018.31 1018.17 1018.05 1017.94 1017.82 1017.69 1017.52 1017.31 1017.03 1016.67 1016.23 1015.70 1015.11 1014.46 1013.80 1013.15 1012.57 1012.10 1011.79 1011.67 1011.75 1012.03 1012.52 1013.16 1013.91
1017.64 1017.83 1018.02 1018.19 1018.34 1018.43 1018.48 1018.47 1018.42 1018.33 1018.22 1018.10 1017.98 1017.87 1017.77 1017.67 1017.58 1017.47 1017.33 1017.14 1016.90 1016.59 1016.21 1015.74 1015.19 1014.57 1013.91 1013.23 1012.57 1011.98 1011.50 1011.18 1011.05 1011.12 1011.39 1011.86 1012.49 1013.23
1017.22 1017.36 1017.49 1017.62 1017.71 1017.77 1017.80 1017.79 1017.75 1017.69 1017.62 1017.55 1017.48 1017.43 1017.38 1017.32 1017.26 1017.16 1017.03 1016.85 1016.60 1016.28 1015.87 1015.39 1014.82 1014.19 1013.51 1012.82 1012.15 1011.54 1011.05 1010.70 1010.54 1010.57 1010.81 1011.24 1011.83 1012.54
1016.91 1017.01 1017.10 1017.17 1017.21 1017.23 1017.22 1017.18 1017.13 1017.08 1017.03 1016.99 1016.97 1016.96 1016.96 1016.95 1016.93 1016.87 1016.77 1016.61 1016.37 1016.06 1015.66 1015.17 1014.60 1013.97 1013.28 1012.58 1011.89 1011.26 1010.74 1010.35 1010.14 1010.11 1010.29 1010.65 1011.19 1011.85
1016.73 1016.80 1016.84 1016.86 1016.85 1016.81 1016.75 1016.67 1016.58 1016.51 1016.45 1016.42 1016.42 1016.44 1016.47 1016.51 1016.54 1016.53 1016.48 1016.36 1016.17 1015.89 1015.52 1015.06 1014.51 1013.89 1013.21 1012.50 1011.80 1011.14 1010.58 1010.14 1009.86 1009.76 1009.85 1010.14 1010.60 1011.20
1016.65 1016.70 1016.71 1016.67 1016.61 1016.50 1016.36 1016.22 1016.07 1015.94 1015.84 1015.78 1015.77 1015.80 1015.86 1015.94 1016.01 1016.07 1016.08 1016.03 1015.91 1015.70 1015.39 1014.99 1014.49 1013.90 1013.25 1012.56 1011.86 1011.18 1010.58 1010.09 1009.74 1009.56 1009.56 1009.76 1010.14 1010.67
1016.64 1016.66 1016.64 1016.56 1016.42 1016.24 1016.03 1015.79 1015.56 1015.35 1015.18 1015.07 1015.01 1015.02 1015.09 1015.19 1015.31 1015.42 1015.51 1015.55 1015.52 1015.41 1015.20 1014.88 1014.47 1013.96 1013.37 1012.71 1012.03 1011.37 1010.75 1010.21 1009.81 1009.56 1009.48 1009.59 1009.89 1010.35
1016.63 1016.64 1016.58 1016.45 1016.26 1016.00 1015.69 1015.36 1015.03 1014.72 1014.46 1014.27 1014.15 1014.12 1014.16 1014.27 1014.42 1014.59 1014.75 1014.89 1014.96 1014.97 1014.87 1014.68 1014.39 1013.99 1013.49 1012.92 1012.31 1011.68 1011.07 1010.54 1010.10 1009.80 1009.66 1009.70 1009.93 1010.32
1016.60 1016.59 1016.49 1016.32 1016.06 1015.73 1015.34 1014.91 1014.48 1014.07 1013.71 1013.43 1013.23 1013.14 1013.14 1013.23 1013.39 1013.60 1013.83 1014.04 1014.23 1014.35 1014.39 1014.34 1014.19 1013.93 1013.57 1013.13 1012.62 1012.07 1011.53 1011.03 1010.61 1010.30 1010.13 1010.12 1010.29 1010.62
1016.52 1016.48 1016.35 1016.14 1015.83 1015.44 1014.98 1014.47 1013.95 1013.45 1013.00 1012.62 1012.35 1012.18 1012.13 1012.18 1012.32 1012.54 1012.80 1013.08 1013.34 1013.57 1013.74 1013.84 1013.84 1013.74 1013.54 1013.25 1012.89 1012.47 1012.04 1011.62 1011.26 1010.98 1010.82 1010.79 1010.92 1011.19
1016.39 1016.32 1016.17 1015.92 1015.58 1015.14 1014.63 1014.08 1013.50 1012.93 1012.41 1011.95 1011.60 1011.35 1011.23 1011.23 1011.33 1011.52 1011.77 1012.07 1012.38 1012.69 1012.96 1013.17 1013.31 1013.37 1013.35 1013.23 1013.03 1012.78 1012.49 1012.19 1011.93 1011.72 1011.59 1011.58 1011.69 1011.92
1016.22 1016.13 1015.96 1015.69 1015.34 1014.89 1014.36 1013.79 1013.18 1012.58 1012.00 1011.50 1011.08 1010.76 1010.56 1010.48 1010.51 1010.64 1010.84 1011.11 1011.43 1011.75 1012.07 1012.37 1012.62 1012.81 1012.94 1012.99 1012.96 1012.88 1012.75 1012.60 1012.45 1012.34 1012.28 1012.30 1012.42 1012.62
1016.04 1015.94 1015.76 1015.50 1015.14 1014.71 1014.20 1013.63 1013.03 1012.43 1011.84 1011.31 1010.84 1010.47 1010.19 1010.02 1009.96 1009.99 1010.10 1010.29 1010.55 1010.84 1011.15 1011.48 1011.79 1012.07 1012.30 1012.49 1012.61 1012.68 1012.71 1012.71 1012.69 1012.69 1012.71 1012.78 1012.91 1013.11
1015.87 1015.77 1015.60 1015.35 1015.03 1014.62 1014.15 1013.63 1013.07 1012.49 1011.93 1011.39 1010.90 1010.48 1010.14 1009.88 1009.70 1009.61 1009.60 1009.67 1009.82 1010.02 1010.27 1010.56 1010.87 1011.17 1011.47 1011.74 1011.98 1012.17 1012.32 1012.45 1012.55 1012.64 1012.74 1012.87 1013.03 1013.22
1015.74 1015.65 1015.49 1015.27 1014.98 1014.63 1014.22 1013.75 1013.26 1012.74 1012.21 1011.70 1011.21 1010.77 1010.37 1010.02 1009.74 1009.52 1009.37 1009.29 1009.29 1009.36 1009.50 1009.70 1009.95 1010.23 1010.52 1010.83 1011.11 1011.38 1011.62 1011.83 1012.02 1012.19 1012.36 1012.53 1012.72 1012.92
1015.64 1015.56 1015.43 1015.25 1015.00 1014.71 1014.36 1013.97 1013.54 1013.09 1012.63 1012.16 1011.69 1011.24 1010.81 1010.40 1010.02 1009.68 1009.40 1009.17 1009.01 1008.93 1008.93 1009.00 1009.14 1009.35 1009.59 1009.87 1010.16 1010.44 1010.71 1010.97 1011.20 1011.42 1011.63 1011.84 1012.04 1012.25
1015.56 1015.51 1015.40 1015.25 1015.06 1014.81 1014.53 1014.21 1013.86 1013.48 1013.09 1012.68 1012.25 1011.82 1011.37 1010.93 1010.48 1010.06 1009.66 1009.30 1009.00 1008.77 1008.63 1008.56 1008.58 1008.68 1008.84 1009.04 1009.29 1009.54 1009.80 1010.06 1010.30 1010.53 1010.75 1010.96 1011.17 1011.39
1015.50 1015.46 1015.39 1015.27 1015.11 1014.91 1014.68 1014.42 1014.14 1013.84 1013.51 1013.17 1012.80 1012.40 1011.98 1011.53 1011.06 1010.58 1010.11 1009.66 1009.25 1008.91 1008.64 1008.45 1008.35 1008.34 1008.40 1008.52 1008.69 1008.88 1009.10 1009.31 1009.53 1009.73 1009.94 1010.14 1010.34 1010.54
1015.43 1015.42 1015.36 1015.27 1015.13 1014.97 1014.78 1014.58 1014.35 1014.12 1013.86 1013.59 1013.28 1012.94 1012.56 1012.14 1011.68 1011.20 1010.70 1010.21 1009.74 1009.33 1008.97 1008.70 1008.51 1008.40 1008.37 1008.40 1008.49 1008.62 1008.76 1008.92 1009.08 1009.25 1009.41 1009.58 1009.75 1009.93
1015.34 1015.35 1015.31 1015.23 1015.12 1014.98 1014.83 1014.66 1014.49 1014.31 1014.12 1013.91 1013.68 1013.41 1013.09 1012.73 1012.32 1011.87 1011.39 1010.90 1010.43 1009.99 1009.60 1009.28 1009.03 1008.87 1008.77 1008.74 1008.76 1008.81 1008.89 1008.99 1009.09 1009.20 1009.31 1009.43 1009.56 1009.70
1015.22 1015.24 1015.22 1015.15 1015.06 1014.95 1014.82 1014.69 1014.56 1014.43 1014.30 1014.16 1014.00 1013.80 1013.56 1013.27 1012.93 1012.55 1012.12 1011.69 1011.25 1010.83 1010.45 1010.13 1009.87 1009.68 1009.55 1009.47 1009.44 1009.45 1009.47 1009.51 1009.55 1009.60 1009.66 1009.72 1009.80 1009.90
1015.05 1015.08 1015.07 1015.03 1014.95 1014.86 1014.76 1014.66 1014.57 1014.50 1014.42 1014.35 1014.26 1014.13 1013.97 1013.77 1013.51 1013.20 1012.86 1012.49 1012.12 1011.76 1011.43 1011.13 1010.89 1010.71 1010.57 1010.48 1010.43 1010.40 1010.39 1010.38 1010.38 1010.38 1010.38 1010.39 1010.42 1010.46
Thickness
5622 5622 5622 5622 5623 5622 5622 5621 5618 5617 5618 5621 5622 5625 5626 5628 5630 5631 5633 5634 5636 5638 5639 5641 5642 5644 5644 5645 5646 5647 5648 5650 5651 5650 5650 5650 5649 5648
5617 5616 5616 5617 5617 5617 5617 5616 5615 5614 5612 5614 5616 5618 5620 5622 5624 5625 5627 5628 5630 5632 5633 5635 5636 5637 5638 5639 5640 5641 5642 5644 5644 5643 5643 5643 5642 5641
5611 5611 5610 5611 5610 5610 5610 5610 5609 5608 5607 5607 5608 5611 5613 5615 5617 5620 5621 5622 5624 5626 5627 5629 5631 5632 5632 5633 5633 5634 5635 5637 5637 5636 5635 5635 5635 5634
5605 5605 5604 5605 5604 5604 5603 5603 5603 5603 5602 5601 5602 5604 5606 5609 5610 5612 5614 5616 5617 5619 5621 5623 5624 5625 5625 5626 5627 5627 5628 5628 5628 5628 5628 5627 5627 5627
5600 5599 5599 5598 5598 5597 5597 5597 5596 5597 5596 5596 5596 5597 5599 5601 5602 5604 5606 5607 5610 5612 5613 5615 5617 5618 5618 5619 5619 5620 5620 5621 5621 5620 5620 5620 5620 5620
5595 5594 5594 5593 5593 5593 5592 5591 5590 5590 5589 5589 5589 5590 5591 5593 5594 5595 5597 5599 5601 5604 5606 5607 5609 5610 5611 5612 5613 5612 5613 5613 5614 5614 5613 5613 5612 5613
5589 5589 5589 5589 5589 5588 5588 5586 5585 5583 5582 5582 5581 5582 5583 5584 5585 5586 5588 5589 5592 5595 5596 5599 5601 5602 5603 5604 5604 5605 5605 5606 5606 5607 5606 5606 5605 5605
5583 5582 5582 5583 5583 5583 5583 5582 5581 5578 5577 5575 5574 5575 5576 5577 5577 5579 5578 5579 5582 5585 5587 5589 5592 5593 5594 5596 5596 5597 5598 5599 5599 5599 5599 5599 5598 5598
5576 5575 5576 5576 5576 5575 5575 5575 5574 5573 5573 5571 5569 5569 5569 5570 5570 5570 5571 5572 5573 5576 5577 5580 5582 5584 5586 5588 5589 5590 5591 5591 5592 5592 5592 5591 5591 5591
5570 5569 5568 5568 5568 5567 5566 5565 5565 5564 5565 5564 5563 5564 5564 5564 5564 5564 5564 5563 5564 5566 5568 5570 5573 5575 5578 5579 5581 5582 5583 5583 5584 5584 5584 5584 5584 5583
5563 5562 5561 5561 5561 5561 5558 5557 5556 5556 5557 5557 5556 5557 5557 5558 5557 5555 5554 5554 5555 5557 5558 5560 5563 5565 5568 5570 5572 5573 5574 5575 5575 5576 5576 5576 5576 5576
5556 5555 5554 5554 5554 5553 5550 5549 5547 5547 5547 5548 5547 5547 5547 5547 5548 5547 5546 5545 5546 5547 5549 5551 5552 5554 5557 5560 5561 5563 5565 5566 5566 5567 5567 5567 5568 5568
5549 5547 5547 5547 5547 5546 5544 5542 5542 5540 5539 5538 5537 5536 5536 5536 5536 5536 5537 5537 5537 5539 5541 5542 5543 5543 5545 5548 5551 5552 5554 5556 5557 5557 5558 5558 5559 5559
5542 5541 5540 5540 5539 5538 5536 5535 5534 5532 5529 5528 5526 5525 5524 5524 5525 5526 5527 5528 5529 5530 5531 5532 5534 5535 5536 5537 5540 5542 5544 5545 5547 5548 5549 5549 5550 5551
5535 5534 5533 5531 5530 5528 5528 5527 5525 5522 5520 5518 5516 5515 5515 5515 5515 5516 5517 5518 5519 5520 5521 5523 5525 5526 5528 5529 5531 5532 5534 5535 5537 5538 5540 5540 5541 5542
5527 5525 5524 5522 5519 5518 5517 5516 5514 5512 5511 5509 5507 5506 5505 5505 5505 5505 5506 5507 5508 5509 5511 5513 5516 5517 5519 5520 5522 5523 5524 5525 5527 5528 5530 5531 5533 5534
5518 5515 5512 5510 5508 5507 5506 5504 5503 5501 5501 5499 5498 5496 5495 5495 5495 5495 5495 5496 5497 5499 5501 5502 5505 5507 5509 5510 5512 5514 5514 5515 5517 5518 5520 5522 5524 5526
5509 5505 5503 5500 5498 5497 5496 5494 5493 5492 5491 5490 5489 5487 5486 5486 5485 5484 5485 5486 5487 5489 5490 5491 5494 5496 5498 5500 5501 5503 5504 5505 5507 5509 5511 5513 5515 5517
5500 5497 5495 5493 5490 5489 5487 5486 5484 5483 5482 5481 5480 5478 5478 5477 5476 5475 5475 5476 5478 5478 5479 5481 5483 5485 5487 5490 5492 5492 5493 5495 5497 5499 5500 5503 5506 5509
5491 5488 5486 5484 5482 5481 5479 5478 5476 5474 5473 5472 5470 5469 5468 5468 5467 5467 5467 5467 5468 5469 5469 5471 5472 5474 5476 5478 5480 5481 5482 5485 5487 5489 5490 5493 5496 5499
5482 5480 5478 5476 5474 5473 5471 5470 5468 5466 5464 5463 5462 5461 5460 5459 5459 5458 5458 5458 5458 5459 5459 5460 5462 5463 5464 5466 5468 5470 5472 5474 5477 5479 5481 5483 5486 5489
5474 5472 5470 5468 5467 5465 5464 5462 5460 5458 5456 5454 5453 5452 5452 5451 5451 5450 5450 5449 5449 5449 5450 5451 5452 5453 5454 5456 5458 5460 5462 5464 5467 5470 5473 5475 5476 5480
5466 5465 5463 5461 5459 5458 5456 5454 5452 5450 5448 5447 5446 5445 5444 5443 5442 5442 5442 5441 5441 5441 5441 5441 5442 5443 5444 5446 5447 5449 5452 5454 5456 5460 5463 5467 5469 5472